Weather in Uberaba

Brazil     19°45′58″S   47°55′34″W
temp.,
°C
wind,
m/s
gust,
m/s
humid.,
%
clouds,
%
prec.,
mm/h
press.,
hPa
HPBL,
m
22 april, thu
thu2200:00+16se11580 0.0 101511
03:00+15ese11670 0.0 101411
06:00+14e11720 0.0 101510
09:00+22sse11470 0.0 1016354
12:00+28sw22310 0.0 10141966
15:00+29sw43260 0.0 10112351
18:00+22s23400 0.0 101218
21:00+18sse12510 0.0 101511
23 april, fri
fri2300:00+16se23630 0.0 101533
03:00+14ese11660 0.0 101411
06:00+14ene11680 0.0 101610
09:00+23ne22450 0.0 1016395
12:00+29w23280 0.0 10142178
15:00+30wsw44230 0.0 10112519
18:00+23ssw33360 0.0 101122
21:00+18ene11440 0.0 101411
24 april, sat
sat2400:00+17ene11480 0.0 101411
03:00+16ene225199 0.0 101411
06:00+15ne22521 0.0 101511
09:00+24ne113587 0.0 1015296
12:00+30w23236 0.0 10131997
15:00+31wsw331991 0.0 10102549
18:00+23sse1134100 0.0 101111
21:00+20nne113799 0.0 101311
25 april, sun
sun2500:00+20e1137100 0.0 101311
03:00+18ne224298 0.0 101311
06:00+18ne2242100 0.0 101320
09:00+25nne233190 0.0 1014338
12:00+31nnw34237 0.0 10112734
15:00+32nw4422100 0.0 10083033
18:00+25wnw3438100 0.0 101052
21:00+21w114552 0.0 101211
26 april, mon
mon2600:00+23nw1142100 0.0 101213
03:00+19w345196 0.0 101269
06:00+17nw115997 0.0 101311
09:00+22wsw345099 0.0 1014312
12:00+25sw334298 0.0 1013657
15:00+27ssw3336100 0.0 1011947
18:00+21sw2352100 0.0 101254
21:00+20nnw2252100 0.0 101440